Regional Weather Roundup
Issued by NWS

Home | Current Version | Previous Version | Text Only | Print | Product List | Glossary On
Versions: 1 2 3 4 5 6 7 8 9 10 11 12 13 14 15 16 17 18 19 20 21 22 23 24 25 26 27 28 29 30 31 32 33 34 35 36 37 38 39 40 41 42 43 44 45 46 47 48 49 50
601
ASUS43 KMKX 231700
RWRWI

WISCONSIN REGIONAL WEATHER ROUNDUP
NATIONAL WEATHER SERVICE MILWAUKEE/SULLIVAN WI
1200 PM CDT SAT SEP 23 2017

NOTE: "FAIR" INDICATES FEW OR NO CLOUDS BELOW 12,000 FEET WITH NO
SIGNIFICANT WEATHER AND/OR OBSTRUCTIONS TO VISIBILITY.

WIZ001-002-006>008-014>016-023>028-231800-
NORTHWEST WISCONSIN

CITY           SKY/WX    TMP DP  RH WIND       PRES   REMARKS
SUPERIOR ARPT  PTSUNNY   82  72  70 SW7       29.92S HX  87
ASHLAND        SUNNY     86  70  58 SW12      29.95F HX  90
HAYWARD        MOSUNNY   80  69  69 S10       29.99S HX  83
SIREN          SUNNY     83  69  61 SW8       29.96F HX  86
CUMBERLAND     SUNNY     79  66  65 S10       30.00S HX  81
RICE LAKE      SUNNY     82  68  62 S10       30.01S HX  84
CHETEK         MOSUNNY   82  71  69 MISG      30.01R HX  86
LADYSMITH      CLOUDY    82  69  64 S12       30.04R HX  86
EAU CLAIRE     NOT AVBL
MENOMONIE      MOSUNNY   83  69  62 S7        30.01S HX  87
NEW RICHMOND   SUNNY     82  67  59 S12       29.99S HX  85
OSCEOLA        SUNNY     82  69  65 SE8       29.99S HX  85
$$

WIZ003>005-009-010-017-018-231800-
NORTH CENTRAL WISCONSIN

CITY           SKY/WX    TMP DP  RH WIND       PRES   REMARKS
MANITOWISH WTR NOT AVBL
ARBOR VITAE    SUNNY     82  71  68 S12       30.03F HX  87
WOODRUFF       SUNNY     82  71  68 S12       30.03F HX  87
RHINELANDER    SUNNY     82  69  64 SW14      30.06F HX  85
EAGLE RIVER    SUNNY     81  66  58 SW10      30.04S HX  83
LAND O LAKES   SUNNY     83  67  59 SW12      30.05S HX  85
PHILLIPS       SUNNY     81  70  69 S13       30.02S HX  84
TOMAHAWK       SUNNY     82  67  59 SW3       30.06S HX  85
MEDFORD        SUNNY     82  68  62 SW13G18   30.06S HX  84
MERRILL        SUNNY     84  69  60 SW14G20   30.06F HX  88
$$

WIZ029-030-035-036-043>047-231800-
CENTRAL WISCONSIN

CITY           SKY/WX    TMP DP  RH WIND       PRES   REMARKS
WAUSAU         SUNNY     84  67  56 SW13      30.05S HX  86
MOSINEE        PTSUNNY   84  68  58 SW13G20   30.08S HX  87
MARSHFIELD     SUNNY     85  67  54 SW15      30.06S HX  87
STEVENS POINT  SUNNY     83  67  58 SW13      30.08S HX  85
WAUPACA        SUNNY     87  68  53 SW5       30.08S HX  91
WAUTOMA        SUNNY     87  70  56 W8        30.08S HX  92
WISC RAPIDS    SUNNY     88  68  51 W10G21    30.08S HX  91
CAMP DOUGLAS   NOT AVBL
$$

WIZ011>013-019>022-031-037>040-048>050-231800-
NORTHEAST WISCONSIN

CITY           SKY/WX    TMP DP  RH WIND       PRES   REMARKS
ANTIGO         SUNNY     83  69  61 SW15      30.08S HX  86
SHAWANO        SUNNY     88  68  52 SW7       30.06S HX  91
OCONTO         SUNNY     86  69  55 W9        30.06R HX  90
STURGEON BAY   SUNNY     88  67  49 SW12      30.07F HX  91
GREEN BAY      SUNNY     86  69  56 S7        30.07S HX  90
MANITOWOC      SUNNY     84  70  62 SE9       30.09S HX  88
APPLETON       MOSUNNY   86  63  45 SW8       30.08S HX  87
CLINTONVILLE   SUNNY     86  66  51 SW8       30.07R HX  88
OSHKOSH        SUNNY     86  68  54 SW6       30.08S HX  89
$$

WIZ032>034-041-042-053>061-231800-
SOUTHWEST WISCONSIN

CITY           SKY/WX    TMP DP  RH WIND       PRES   REMARKS
LA CROSSE      SUNNY     88  69  53 S10       30.02F HX  92
SPARTA         MOSUNNY   86  68  54 SW6       30.05F HX  90
VIROQUA        SUNNY     86  68  55 SW12      30.08S HX  89
BOSCOBEL       SUNNY     88  67  49 W5        30.05F HX  91
PRAIRIE DU CHI SUNNY     86  64  47 S5        30.05F HX  87
PLATTEVILLE    SUNNY     89  65  46 S6        30.09F HX  90
$$

WIZ056-057-062-063-064-067-068-231800-
SOUTH CENTRAL WISCONSIN

CITY           SKY/WX    TMP DP  RH WIND       PRES   REMARKS
REEDSBURG      SUNNY     87  67  51 SW8       30.07F HX  90
BARABOO/DELLS  SUNNY     86  64  47 SW6       30.08F HX  87
LONE ROCK      SUNNY     88  68  51 VRB3      30.06F HX  91
MINERAL POINT  SUNNY     90  63  40 S10       30.09F HX  90
MADISON        MOSUNNY   87  67  51 SE8       30.08F HX  90
MIDDLETON      SUNNY     89  63  42 W8        30.09F HX  89
WATERTOWN      SUNNY     87  67  51 SW6       30.09F HX  90
MONROE         NOT AVBL
JANESVILLE     SUNNY     90  63  40 CALM      30.09F HX  90
$$

WIZ051-052-058>065-066-070>072-231800-
SOUTHEAST WISCONSIN

CITY           SKY/WX    TMP DP  RH WIND       PRES   REMARKS
MILWAUKEE      MOSUNNY   89  69  51 SE9       30.09F HX  93
WAUKESHA       SUNNY     88  64  45 SW3       30.12F HX  89
MILWAUKEE/TIMM SUNNY     90  57  33 CALM      30.11S HX  88
RACINE         SUNNY     86  70  58 SE8       30.12S HX  90
BURLINGTON     SUNNY     89  65  44 W5        30.11S HX  91
KENOSHA        SUNNY     90  67  46 SE6       30.11S HX  93
FOND DU LAC    SUNNY     86  66  51 SW7       30.09S HX  88
SHEBOYGAN      SUNNY     88  68  51 SW6       30.09F HX  91
WEST BEND        N/A     88  61  40 W8        30.10F HX  88
JUNEAU         SUNNY     83  67  58 S5        30.11F HX  86
$$

LSZ147-162-231800-
LAKE SUPERIOR

STATION/POSITION TIME  TEMP    WIND        PRES    WAVE
                       AIR SEA DIR/SP/G            HT/PER
                 (UTC) (F)     (DEG/KT/KT) (MB)    (FT/S)
W MID LAKE BUOY  1550   62 55  230/ 10/ 10 1013.5R   1/ 4
DEVILS ISLAND    1600   71     230/ 10/ 13 1013.1S
SAXON HARBOR     1540   81     190/  6/ 11 1014.2R
$$

LMZ867-665-643>646-231800-
LAKE MICHIGAN

STATION/POSITION TIME  TEMP    WIND        PRES    WAVE
                       AIR SEA DIR/SP/G            HT/PER
                 (UTC) (F)     (DEG/KT/KT) (MB)    (FT/S)
S GREEN BAY BUOY 1600   71 68  170/  6/  8 1017.9
N MID LAKE BUOY  1550   69 66  190/ 12/ 14 1018.5R   2/ 4
NORTHPORT PIER   1640   76     140/  6/  8 1017.6R
KEWAUNEE LAKESHO 1630   66     170/ 11/ 11 1017.8S
SHEBOYGAN LAKESH 1600   73     170/ 16/ 17 1018.6R
PORT WASHINGTON  1640   79     180/  4/  6 1020.0S
ATWATER BUOY     1539   71 68  170/  6/  8 1019.6R
MILWAUKEE LAKESH 1650   71     140/  5/  7   N/A
S MID LAKE BUOY  1550   72 70  150/  4/  6 1019.7R   0
KENOSHA   LAKESH 1600   74     160/  9/  9 1019.0
$$

TC  - TEMPERATURE IN CELSIUS
VSB - VISIBILITY IN STATUTE MILES
WCI - WIND CHILL INDEX
HX  - HEAT INDEX





USA.gov is the U.S. government's official web portal to all federal, state and local government web resources and services.